User: anonymous   Login
Location: Unspecified
(50.1700°N, 6.8600°E)
Time: 19:40:22
(UTC+00:00)
Language:

IRS-1C Rocket - Orbit

View from above orbital plane
View from above orbital plane
View from above satellite
View from above satellite

Ground track
Ground track

The orbit data is extracted from the following two-line orbital elements,

1 23753U 95072C   19076.95318179 -.00000024 +00000-0 +93966-5 0  9994
2 23753 098.9738 074.3004 0003332 190.4705 169.6405 14.26585894208307
Epoch (UTC): 17 March 2019 22:52:34
Eccentricity: 0.0003332
inclination: 98.9738°
perigee height: 801 km
apogee height: 805 km
right ascension of ascending node: 74.3004°
argument of perigee: 190.4705°
revolutions per day: 14.26585894
mean anomaly at epoch: 169.6405°
orbit number at epoch: 20830

The dashed part of the orbit path shows where the satellite is in the earth's shadow,  

DLR